Flag for Austria Weather past 2 weeks in Judenburg, Styria, Austria

Now
55 °F

Passing clouds.


Feels Like: 55 °F
Forecast: 23 / 56 °F
Wind: 3 mph from North

Location: Zeltweg

Current Time: Apr 19, 2015 at 6:08:19 PM

Latest Report: Apr 19, 2015 at 4:50 PM


Visibility: 31 mi

Pressure: 30.04 "Hg

Humidity: 28%

Dew point: 23 °F

Location of JudenburgLocation

Historic Weather in Judenburg — Graph

°F

Judenburg temperature yesterday

Maximum temperature yesterday: 46 °F (at 1:50 PM)
Minimum temperature yesterday: 36 °F (at 10:50 PM)
Average temperature yesterday: 43 °F

Past Weeks' High & Low Weather Summary

 TemperatureHumidityPressure
High73 °F (Apr 16, 1:50 PM)100% (Apr 7, 8:20 AM)30.45 "Hg (Apr 7, 8:20 AM)
Low21 °F (Apr 7, 6:50 AM)14% (Apr 16, 5:50 PM)29.80 "Hg (Apr 4, 4:50 PM)
Average49 °F57%30.21 "Hg
* Reported Apr 4 4:50 PM — Apr 19 4:50 PM, Judenburg, Weather by CustomWeather, © 2015

Note: Actual official high and low records may vary slightly from our data, if they occured in-between our weather recording intervals... More about our weather records

Advertising

Judenburg weather history for previous 24 hours

 ConditionsComfort  
Time TempWeatherWind HumidityBarometerVisibility
4:50 PM
Sun, Apr 19
55 °FPassing clouds.3 mph28%30.04 "Hg31 mi
3:50 PM55 °FPassing clouds.3 mph31%30.07 "Hg31 mi
2:50 PM55 °FPassing clouds.3 mph28%30.07 "Hg31 mi
1:50 PM52 °FPassing clouds.5 mph30%30.09 "Hg31 mi
12:50 PM50 °FPassing clouds.3 mph40%30.12 "Hg31 mi
11:50 AM46 °FPassing clouds.3 mph40%30.15 "Hg31 mi
10:50 AM45 °FPassing clouds.5 mph49%30.15 "Hg25 mi
9:50 AM41 °FPassing clouds.2 mph57%30.15 "Hg25 mi
8:50 AM37 °FPassing clouds.1 mph75%30.18 "Hg25 mi
7:50 AM32 °FPassing clouds.3 mph87%30.18 "Hg25 mi
6:50 AM27 °FPassing clouds.No wind93%30.18 "Hg25 mi
5:50 AM30 °FPassing clouds.No wind93%30.18 "Hg19 mi
10:50 PM
Sat, Apr 18
36 °FPassing clouds.5 mph81%30.18 "Hg19 mi
8:50 PM39 °FPartly sunny.7 mph65%30.15 "Hg19 mi
7:50 PM39 °FPartly sunny.2 mph56%30.15 "Hg19 mi
6:50 PM43 °FPassing clouds.8 mph53%30.12 "Hg19 mi
Weather by CustomWeather, © 2015

See weather overviewHow to use our weather pages